Regional Weather Roundup
Issued by NWS State College, PA

Home | Current Version | Previous Version | Graphics & Text | Print | Product List | Glossary Off
Versions: 1 2 3 4 5 6 7 8 9 10 11 12 13 14 15 16 17 18 19 20 21 22 23 24 25 26 27 28 29 30 31 32 33 34 35 36 37 38 39 40 41 42 43 44 45 46 47 48 49 50

000
ASUS41 KCTP 181010
RWRCTP

REGIONAL WEATHER ROUNDUP
NATIONAL WEATHER SERVICE STATE COLLEGE PA
600 AM EDT FRI APR 18 2014

Note: "fair" indicates few or no clouds below 12,000 feet with no
significant weather and/or obstructions to visibility.

* = STATION THAT DOES NOT REPORT PRECIPITATION /E.G. RAIN...SNOW...ETC/
    THUNDER OR FOG.

PAZ002>004-007>009-013>016-020>023-029>032-181100-
WESTERN PENNSYLVANIA

CITY           SKY/WX    TMP DP  RH WIND       PRES   REMARKS
ERIE           PTCLDY    46  27  47 S18G25    30.27S
MEADVILLE      PTCLDY    41  28  60 VRB5      30.30R
FRANKLIN*      PTCLDY    36  27  69 SE8       30.34R
NEW CASTLE     FAIR      40  27  60 CALM      30.33R
BEAVER COUNTY  NOT AVBL
BUTLER*        MOCLDY    39  27  60 E7        30.33S
PITTSBURGH INT CLOUDY    42  27  55 SE5       30.31R
PITTSBURGH     MOCLDY    43  27  53 SE3       30.31R
INDIANA*       MOCLDY    39  30  70 SE7       30.35S
LATROBE        CLEAR     37  30  75 CALM      30.34S
WASHINGTON CO* MOCLDY    34  27  75 CALM      30.33R
$$

PAZ004>006-010>012-017>019-024>028-033>037-041-042-045-046-049>053-181100-
CENTRAL PENNSYLVANIA

CITY           SKY/WX    TMP DP  RH WIND       PRES   REMARKS
BRADFORD       CLEAR     34  25  69 SE8       30.33F
DUBOIS         CLEAR     36  28  73 SE10      30.34R
CLEARFIELD     CLEAR     35  29  78 E3        30.39R
JOHNSTOWN      PTCLDY    30  27  88 S5        30.34S
ALTOONA        PTCLDY    35  31  85 S6        30.42R
STATE COLLEGE  CLEAR     36  28  75 SW5       30.43R
WILLIAMSPORT   PTCLDY    36  26  67 NE10      30.46S
SELINSGROVE    CLEAR     35  27  72 SE5       30.48F
FT INDIANTOWN  NOT AVBL
CAPITAL CITY   PTCLDY    33  28  81 CALM      30.50F
HARRISBURG     MOCLDY    34  27  75 CALM      30.50F
YORK           PTCLDY    30  27  88 CALM      30.50S
$$

PAZ038>040-043-044-047-048-054-055-060>062-067>071-181100-
EASTERN PENNSYLVANIA

CITY           SKY/WX    TMP DP  RH WIND       PRES   REMARKS
SCRANTON       CLOUDY    30  26  85 S7        30.47R
MOUNT POCONO   CLOUDY    30  25  81 S8        30.42S
ALLENTOWN      PTCLDY    34  28  80 CALM      30.50F
QUAKERTOWN*    CLOUDY    36  28  75 E6        30.50F
READING        CLOUDY    37  27  67 CALM      30.49F
LANCASTER      CLOUDY    35  28  75 E3        30.49F
COATESVILLE    CLOUDY    34  28  80 CALM      30.48F
POTTSTOWN      CLOUDY    36  28  73 NE5       30.51F
BLUE BELL      CLOUDY    37  30  75 NE5       30.49F
DOYLESTOWN     CLOUDY    35  29  78 CALM      30.49S
WILLOW GROVE   NOT AVBL
NORTH PHILA    CLOUDY    40  29  64 NE6       30.52S
PHILADELPHIA   MOCLDY    39  27  62 NE7       30.51F
$$



USA.gov is the U.S. government's official web portal to all federal, state and local government web resources and services.